Wind_Speed
29 29 30 30 31 31 31 30 29 27 26 25 24 24 24 24 25 25 25 25 25 25 25 25 25 25 25 24 24 23 23 24 26 28 29 29 29 29 29 28 28 28 27 26 25 27 29 32 33 33 31 29 28 26 24 22 20 18 17 15 13 13 16 19 21 23 23 24 26 27 28 28 28 27 26 23 21 19 19 21 22 23 23 20 18 16
29 30 30 31 32 32 32 31 29 28 27 25 24 24 24 25 25 26 25 25 25 25 25 26 26 26 26 26 25 24 24 24 25 26 27 28 28 29 29 28 28 27 26 25 25 26 29 31 32 32 30 28 27 25 23 21 20 18 18 16 15 15 18 19 21 22 23 23 24 24 25 25 24 23 22 21 19 19 20 21 22 21 20 18 16 15
30 30 30 30 31 32 31 31 29 28 27 25 25 25 25 26 27 27 27 26 26 26 27 27 28 28 28 27 26 25 24 24 24 25 25 26 26 27 28 28 27 27 26 25 25 26 28 30 31 31 29 28 26 24 23 21 20 20 19 18 17 17 19 19 20 20 22 23 23 22 22 22 21 21 20 19 19 19 20 20 19 19 18 17 17 16
31 31 30 30 31 31 31 31 30 28 27 26 26 25 26 27 28 28 28 28 27 27 27 27 28 28 28 28 27 25 25 24 24 24 24 24 24 25 27 27 27 27 26 26 26 27 28 30 31 30 29 27 26 24 23 22 21 21 20 19 19 19 20 21 21 23 24 25 26 25 24 23 22 21 21 20 19 19 19 19 19 19 19 19 18 16
32 32 31 30 31 32 32 31 31 30 28 28 27 27 28 28 29 29 29 29 28 27 26 26 27 28 28 27 27 26 25 25 25 25 24 24 24 24 26 27 28 28 27 27 27 28 29 30 30 29 28 27 26 25 23 23 22 22 21 20 20 21 22 23 24 26 27 27 28 27 26 25 24 23 22 22 21 20 20 20 20 20 20 20 19 17
34 33 32 32 32 32 32 32 32 31 30 30 29 29 29 30 30 30 30 29 28 27 26 26 27 27 27 27 27 26 25 24 24 25 25 24 24 24 25 27 28 28 28 27 28 29 30 30 29 28 28 26 25 24 23 23 22 22 21 21 21 22 23 24 26 26 27 27 27 26 25 24 23 23 22 21 21 21 20 21 21 21 21 21 20 18
34 34 34 33 33 33 33 33 33 33 32 32 31 31 31 30 30 31 31 30 28 27 26 26 27 28 28 29 28 26 24 24 24 25 25 25 24 24 25 26 27 27 27 28 29 30 30 30 29 28 27 26 25 24 23 23 22 22 21 21 21 22 24 25 25 26 26 26 25 25 24 22 22 21 20 20 20 21 21 21 21 21 21 21 20 18
35 34 34 34 34 33 33 33 33 33 33 33 32 32 32 31 31 31 31 30 29 28 27 27 28 29 30 30 28 25 23 23 24 25 25 25 24 24 25 25 25 26 26 28 29 30 30 30 28 27 26 25 24 23 23 23 22 21 21 20 21 22 23 24 25 25 25 25 24 23 22 21 21 20 20 20 21 21 21 21 21 21 20 20 19 18
34 34 34 34 33 33 33 34 33 33 33 33 33 33 32 32 32 32 31 31 30 29 28 28 29 30 30 29 26 24 23 23 24 25 25 25 25 25 25 25 25 26 27 28 30 31 31 30 28 26 25 24 24 23 23 22 22 21 20 20 20 21 22 23 24 24 24 23 23 22 22 22 22 22 22 22 22 22 22 22 21 20 20 19 18 18
34 34 34 34 34 34 34 34 34 33 33 33 33 33 33 33 33 33 33 32 31 30 29 29 29 30 29 27 25 23 23 23 24 25 25 25 25 26 26 27 27 28 29 30 32 32 31 30 28 26 25 25 24 23 23 22 21 20 19 19 19 20 21 22 22 22 22 22 21 21 22 23 23 24 24 24 24 23 23 22 21 21 20 19 18 17
35 35 35 35 35 35 34 34 34 34 33 33 33 33 34 34 34 34 34 34 33 31 29 29 28 28 27 25 24 23 23 23 24 24 25 26 26 27 28 29 30 31 31 32 33 33 32 31 29 27 26 25 24 23 22 21 20 19 18 19 19 20 20 21 21 21 21 21 21 22 23 24 25 25 25 25 25 24 23 22 22 21 20 19 19 18
37 36 36 36 35 35 35 35 34 34 33 33 34 34 35 36 36 36 35 35 34 32 30 28 27 26 25 24 24 24 24 24 24 24 25 27 28 29 31 32 33 33 33 33 33 33 32 31 29 28 26 25 24 23 22 20 19 18 18 18 19 20 20 21 21 21 21 21 22 23 24 26 26 27 26 26 25 24 23 22 22 21 20 20 19 19
37 37 36 35 35 35 35 35 34 34 34 35 35 36 37 37 36 36 35 35 34 32 30 28 26 25 24 24 24 24 24 24 24 25 26 28 30 32 33 34 35 35 34 34 33 32 31 30 29 28 27 26 25 23 22 20 19 18 18 19 19 20 21 21 21 22 22 23 23 25 26 27 27 27 27 26 25 24 23 22 21 21 20 20 20 19
37 36 35 35 35 35 35 35 35 35 36 36 36 36 36 36 36 35 35 34 34 32 30 28 25 24 23 24 24 24 24 24 24 25 27 29 32 33 35 35 36 35 35 34 33 32 32 30 29 28 27 26 25 23 21 20 19 18 18 19 20 21 21 21 21 22 22 23 24 25 26 26 27 26 26 25 24 23 22 22 22 21 21 21 21 20
36 35 34 34 35 35 35 35 36 36 37 37 36 35 34 35 35 35 34 34 33 32 30 28 26 24 24 24 25 25 25 25 26 27 29 31 33 34 35 36 36 35 35 34 33 32 32 31 30 29 28 27 25 23 21 20 19 19 19 20 20 21 21 21 21 21 22 22 23 24 24 25 25 24 24 23 23 22 22 22 22 22 22 21 21 21
35 34 34 34 35 35 35 35 36 36 36 36 35 34 34 34 34 34 34 33 33 32 30 28 27 26 26 26 27 27 27 27 27 28 30 32 34 35 36 36 36 35 35 34 33 32 32 32 31 30 28 26 24 22 21 20 19 19 19 20 20 20 20 20 20 20 20 21 21 22 22 23 23 23 22 22 22 22 22 22 22 22 21 21 21 21
34 34 34 34 34 34 34 35 35 35 35 35 35 34 34 34 34 33 33 32 32 31 30 29 28 29 29 29 29 29 29 29 29 30 31 33 34 35 35 36 36 35 34 34 33 33 33 32 32 30 28 25 23 22 21 20 20 19 19 19 19 20 19 19 19 19 19 20 20 21 21 21 22 22 22 22 22 22 22 22 22 21 21 20 20 20
34 34 34 34 34 34 33 33 34 34 34 34 34 34 34 33 33 32 31 31 31 31 31 30 30 31 32 32 32 32 32 31 31 31 32 34 35 35 35 35 35 35 34 34 33 33 33 33 32 30 28 25 23 22 21 20 20 19 19 19 19 19 19 19 19 19 19 19 20 20 21 21 22 22 22 22 22 22 21 21 20 20 19 19 20 20
35 34 34 34 34 33 32 32 33 34 34 34 34 33 33 32 32 31 31 31 31 31 31 31 31 31 32 33 33 33 33 32 32 33 34 35 36 36 36 35 35 35 35 34 34 33 33 33 32 30 27 24 22 22 21 20 20 19 19 19 19 19 19 18 18 19 19 19 20 20 20 21 21 22 22 21 21 21 20 19 19 18 18 19 19 19
35 35 34 33 33 32 32 33 33 33 33 33 32 32 32 32 31 31 31 30 30 30 30 31 31 32 32 33 33 32 32 33 33 34 35 36 37 37 37 37 36 36 35 35 35 34 34 33 32 29 26 24 22 22 21 20 20 19 19 19 19 19 19 19 19 19 19 19 20 20 20 21 21 21 21 20 19 19 18 18 17 17 18 18 18 18
36 35 34 33 32 33 33 34 33 32 32 31 31 31 31 31 31 31 31 30 30 29 30 31 31 32 32 32 32 32 32 33 34 35 36 36 37 38 38 38 38 37 37 37 36 36 35 33 31 28 26 24 23 22 21 20 20 19 19 19 19 19 19 19 19 19 19 19 19 20 20 20 20 20 19 18 18 17 17 17 17 17 17 18 18 18
37 36 34 33 33 34 34 33 32 32 32 31 31 32 32 32 32 31 31 30 30 30 30 31 31 31 31 32 32 32 32 33 34 35 36 38 39 40 40 40 39 39 38 38 37 36 35 33 31 28 26 24 23 22 21 20 20 20 20 20 20 20 19 19 19 19 19 19 19 19 19 19 19 18 18 17 17 17 17 16 17 17 17 17 17 17
37 37 35 34 34 34 34 33 33 33 32 32 32 32 33 32 31 31 30 29 28 28 28 28 29 29 30 31 32 32 32 33 33 34 37 39 41 41 41 41 41 40 40 39 38 37 35 33 31 28 26 25 23 22 21 20 20 20 20 20 20 20 20 20 19 19 19 18 18 18 18 18 18 17 16 16 16 16 16 16 17 17 17 17 18 18
37 36 36 35 35 34 34 34 34 34 34 34 33 33 32 31 30 29 27 26 25 25 25 25 27 28 30 31 32 33 33 33 33 35 37 40 41 42 42 42 42 41 41 40 38 37 35 33 31 29 27 26 24 23 22 21 20 20 20 20 20 20 20 20 19 19 18 18 17 17 17 17 17 16 16 16 16 16 16 16 17 17 18 18 18 18
36 36 36 35 35 34 34 34 35 35 36 36 35 33 32 31 29 27 26 24 24 24 24 25 27 30 31 32 33 34 34 34 34 35 37 40 42 42 42 43 42 42 41 40 38 36 35 33 32 30 28 27 25 24 23 22 21 20 20 19 20 20 20 19 19 18 17 17 16 16 16 16 16 16 16 16 16 16 16 16 17 18 18 18 19 19
36 35 35 35 34 33 33 33 34 35 36 37 36 35 33 31 29 27 26 26 26 26 26 27 29 31 32 33 35 35 35 35 35 36 37 40 42 43 42 43 42 42 41 40 38 36 35 34 33 31 30 28 27 25 24 23 21 20 20 19 19 20 20 19 18 17 16 16 16 16 16 16 16 16 16 16 16 16 16 17 17 18 18 19 19 19
35 35 35 35 34 33 33 33 33 34 36 37 37 37 35 33 31 30 30 30 30 28 28 29 30 32 33 34 36 36 36 35 36 36 37 39 41 43 43 42 42 42 41 40 38 37 36 35 34 33 31 30 28 27 25 23 22 21 20 19 19 19 19 19 18 16 15 15 15 16 16 16 16 16 16 16 16 16 16 17 17 18 19 19 20 20
35 35 35 35 34 33 32 32 32 33 34 36 37 37 37 35 34 34 34 33 32 30 30 30 32 33 34 36 36 37 37 36 37 37 38 39 41 43 43 42 42 42 41 40 39 37 36 36 35 34 33 31 30 28 26 24 22 21 20 20 19 19 19 18 17 16 15 15 15 16 16 16 16 16 16 16 16 16 17 17 18 18 19 19 19 19
35 34 34 33 32 32 31 31 31 32 33 35 36 37 38 37 37 37 36 35 33 32 32 32 32 33 34 35 36 36 37 37 37 38 38 38 41 42 42 42 42 42 42 41 39 38 37 37 36 35 34 32 31 29 27 25 23 22 21 20 20 20 19 18 17 16 15 15 15 16 16 16 16 16 16 16 16 17 17 17 18 18 19 19 19 18
33 33 32 31 30 30 29 30 30 31 33 34 36 37 38 38 38 37 36 34 34 34 34 33 33 33 34 35 35 36 37 38 38 38 38 39 41 43 43 43 43 43 42 41 40 39 38 38 38 36 35 33 31 30 28 26 25 23 22 21 20 20 19 18 17 16 15 15 16 16 17 17 16 16 16 17 17 18 18 18 18 18 18 18 18 17
32 32 31 30 29 28 28 28 30 31 33 34 35 36 37 38 37 36 35 34 34 35 35 34 33 33 34 36 36 37 38 39 39 38 38 39 41 43 43 43 43 43 43 42 41 40 39 39 38 37 36 34 33 31 29 28 26 24 23 22 21 20 20 18 17 16 16 16 16 17 17 17 17 17 17 18 18 18 18 18 17 18 18 17 17 16
33 32 31 30 28 27 27 28 29 31 33 34 35 36 37 38 37 37 35 35 35 35 35 34 33 34 35 36 37 38 39 39 38 38 38 39 41 42 43 43 43 43 43 42 41 41 40 40 40 38 36 35 34 32 31 29 27 25 24 23 22 21 20 19 18 17 16 16 17 17 17 17 17 17 18 18 18 18 18 17 17 17 17 17 16 16
35 33 32 30 29 28 27 27 28 31 33 35 37 38 38 39 39 38 37 36 36 36 35 34 33 34 35 36 37 38 38 37 36 36 36 38 40 42 43 43 43 43 42 42 41 41 40 41 40 39 37 36 35 34 32 30 28 27 25 23 23 22 21 19 18 18 17 17 17 18 17 18 18 18 19 19 19 18 18 17 17 17 17 17 16 15
36 35 33 32 30 29 28 27 28 30 32 36 38 40 40 41 41 40 39 38 38 37 36 35 34 34 35 36 36 37 37 36 35 33 34 36 39 41 42 42 42 43 42 42 42 42 41 41 40 39 38 36 35 34 33 31 30 28 26 25 23 22 21 20 19 18 18 18 18 18 18 19 19 19 19 19 19 18 18 17 17 17 17 16 16 15
38 36 35 33 32 31 30 29 28 29 31 34 37 40 41 42 43 42 41 41 40 39 38 37 36 35 35 35 36 36 36 35 33 32 32 35 37 39 41 42 42 42 42 42 42 42 42 41 40 39 38 37 36 35 34 32 30 29 27 26 24 23 22 21 20 19 18 18 18 19 19 20 20 20 20 20 19 18 18 18 18 18 17 17 16 16
39 38 36 35 34 33 32 31 29 29 30 32 34 37 40 41 43 43 43 42 42 41 40 39 38 36 35 35 35 35 34 32 30 30 31 33 35 37 39 40 41 41 42 42 42 42 42 41 40 39 38 37 36 35 34 33 31 29 28 27 25 24 23 22 21 19 19 18 19 19 20 20 20 20 20 20 19 18 18 18 18 18 17 17 16 16
40 39 38 37 35 35 33 32 31 30 30 31 32 34 36 38 40 41 42 42 42 42 41 40 39 37 36 35 34 33 31 29 28 28 29 30 32 34 37 38 39 40 41 41 42 42 41 41 40 38 38 37 36 35 34 33 31 30 29 28 26 25 23 23 21 20 19 19 19 19 20 20 20 20 20 20 19 19 19 19 19 18 18 17 17 17
41 40 39 37 36 35 34 33 32 31 30 30 31 32 34 36 37 39 40 40 41 41 40 39 38 37 36 36 34 33 30 28 27 27 27 28 29 31 33 36 37 38 39 39 40 40 40 40 40 39 37 36 36 35 34 33 32 31 30 29 27 25 24 23 22 21 20 19 19 19 20 20 21 21 20 20 20 20 20 20 19 19 18 18 17 17
41 40 39 38 37 36 35 34 32 31 30 30 31 32 33 34 35 36 37 38 38 38 38 37 37 37 37 36 35 33 30 28 27 26 26 26 27 28 30 32 35 36 37 38 38 38 38 38 38 38 37 36 35 34 33 32 32 31 30 29 28 27 25 24 23 22 21 20 20 20 20 21 21 21 21 20 20 20 20 19 19 19 18 18 17 17
41 40 39 38 37 36 35 33 32 31 30 30 31 32 33 34 36 36 36 35 35 34 35 35 35 36 37 37 35 33 31 29 28 27 26 25 25 25 26 28 30 33 34 35 36 36 36 35 35 35 35 34 33 33 32 32 31 31 30 30 29 28 27 25 24 23 22 21 21 21 21 21 21 21 21 20 20 20 19 19 18 18 18 17 17 17
41 40 39 38 37 35 33 32 31 31 31 31 31 32 34 35 36 36 35 33 32 32 33 33 34 35 37 36 35 33 31 29 28 28 26 25 24 23 23 24 26 28 31 33 34 34 34 34 33 33 32 32 32 31 30 30 30 30 30 30 29 28 27 26 25 24 23 23 22 22 21 21 22 21 21 20 20 19 19 18 18 18 18 17 17 17
40 40 39 38 36 35 33 33 32 31 31 31 32 33 34 36 36 35 33 32 32 32 33 33 35 37 37 36 34 32 30 29 28 27 26 24 23 22 22 22 23 25 27 30 31 32 32 31 31 31 30 30 30 30 29 28 28 29 29 29 28 27 26 26 26 25 24 24 23 23 22 22 22 22 21 21 20 20 20 19 19 19 18 18 17 17
40 39 38 37 36 35 34 33 33 32 31 31 32 33 34 35 35 34 33 32 32 33 35 36 37 37 37 36 34 31 30 29 28 26 25 24 23 22 21 22 22 23 24 27 30 31 30 30 29 29 28 28 28 28 27 27 27 27 28 28 28 28 28 28 27 26 26 25 24 24 23 23 22 22 21 21 21 20 20 20 20 19 19 18 17 17
39 39 38 37 36 36 35 34 33 32 32 32 33 33 34 34 34 34 33 33 33 35 36 37 37 37 36 35 33 31 30 28 27 26 24 23 22 22 21 21 22 22 23 25 27 29 29 29 28 28 27 26 26 25 24 24 25 26 27 27 28 28 29 28 27 27 27 26 25 24 24 23 23 22 22 21 21 21 20 20 19 19 18 18 17 17
39 39 38 38 37 36 35 35 34 33 32 32 32 33 33 33 33 33 33 33 34 36 38 38 37 37 36 35 33 31 30 28 27 25 24 23 22 22 21 21 21 21 22 23 24 26 27 27 27 26 25 25 24 23 23 23 23 25 26 27 27 27 26 25 25 26 26 26 26 25 24 24 23 23 22 22 21 21 21 20 19 18 18 17 17 16
39 39 39 39 38 37 36 35 34 33 32 32 32 32 32 33 33 33 34 35 36 38 38 38 38 37 36 35 34 32 30 29 27 26 25 24 23 23 22 22 21 21 22 22 23 23 24 24 24 25 25 24 24 23 22 22 23 24 25 26 27 27 26 25 25 25 25 25 25 25 24 24 23 23 23 22 22 21 20 20 19 18 18 17 17 16
39 39 39 39 38 37 36 36 34 33 32 32 32 32 32 32 33 34 35 36 38 39 39 38 37 37 36 36 34 33 31 29 28 27 26 25 24 24 23 23 22 22 22 22 22 22 22 21 21 22 23 24 24 24 24 23 23 23 24 25 26 27 27 27 26 25 23 23 23 23 24 24 24 23 23 22 21 21 20 19 19 18 18 17 17 16
39 39 39 39 38 37 36 36 34 33 32 31 31 31 32 32 33 35 36 37 38 39 38 37 37 36 36 35 34 33 31 30 29 28 27 27 26 26 25 25 24 24 23 22 22 21 21 20 19 19 20 22 24 24 25 24 24 23 23 25 26 26 26 26 25 24 23 22 22 22 23 23 23 23 22 21 21 20 20 19 19 18 18 17 17 16
39 39 39 39 38 37 36 36 34 33 31 31 31 31 32 32 34 35 37 38 38 38 37 36 36 36 35 34 33 32 30 30 29 29 28 28 28 27 27 27 27 26 25 24 23 22 21 21 20 20 20 21 22 23 24 24 24 24 23 24 25 25 26 26 25 24 24 23 23 22 22 22 21 21 20 20 20 20 20 19 19 18 18 17 17 16
38 38 39 38 38 37 37 35 34 32 31 30 30 31 32 33 34 35 36 37 37 36 35 35 35 34 34 33 32 31 30 29 29 29 29 29 28 29 29 29 29 28 27 26 25 23 23 22 22 22 23 22 22 22 22 23 24 24 24 24 25 25 25 25 25 25 25 24 24 24 23 22 21 21 20 20 20 20 20 19 19 18 18 17 17 16
37 38 38 38 37 37 36 34 33 31 30 30 30 31 32 33 34 35 36 36 35 34 33 33 32 32 32 32 31 30 29 29 29 29 29 29 29 29 29 30 30 30 29 28 27 26 25 24 24 24 24 24 24 23 22 23 24 25 25 25 25 25 25 25 25 25 25 25 25 24 24 23 23 22 22 21 21 20 20 20 19 19 18 17 17 17
Wind_Direction
247 245 245 244 243 243 245 248 252 256 260 263 262 261 259 257 256 256 257 258 260 261 263 266 267 266 265 264 263 262 261 259 255 251 247 244 242 241 240 240 241 242 243 245 249 252 254 252 249 248 248 249 252 255 260 263 262 259 256 252 246 236 227 221 217 216 215 215 214 215 216 220 224 229 233 237 241 246 251 252 251 249 247 246 249 257
253 251 249 249 249 250 251 254 256 258 261 263 262 260 258 257 256 257 258 257 257 257 259 261 262 262 262 263 262 260 258 257 257 256 253 250 246 243 241 240 239 240 241 243 247 251 252 251 249 248 248 249 252 257 262 264 261 257 252 246 235 225 222 219 217 215 214 214 215 217 220 224 228 233 237 240 244 248 249 247 245 244 245 249 258 269
258 255 253 253 253 254 254 256 257 259 262 264 264 262 259 258 258 258 258 258 257 257 257 259 260 261 262 263 262 260 256 255 256 258 258 256 252 247 243 240 238 238 239 241 244 248 250 250 249 248 249 250 254 259 264 264 260 255 250 245 235 225 221 223 225 225 224 224 225 227 230 233 236 239 242 244 246 248 248 247 247 249 254 263 272 280
263 261 260 259 259 258 258 258 258 260 262 264 264 263 261 259 259 259 260 259 259 259 259 259 260 261 262 263 263 260 257 254 255 256 258 257 255 251 246 241 239 237 238 240 243 247 248 248 247 248 250 253 258 262 264 263 258 253 249 245 237 227 221 222 226 230 233 235 237 238 240 241 243 244 246 248 249 251 252 254 257 261 267 273 279 282
266 266 265 264 262 261 261 260 260 261 262 263 264 263 262 261 261 261 261 261 261 262 261 259 258 259 260 261 262 261 258 255 255 255 256 256 254 251 247 242 239 237 238 240 243 246 246 246 246 248 252 257 261 263 263 260 255 250 247 243 238 232 226 225 227 231 236 240 242 244 245 246 246 247 249 251 253 256 259 262 265 268 272 275 279 279
267 268 268 266 265 264 263 262 262 262 263 263 264 263 263 263 263 263 262 263 263 263 261 258 255 255 256 258 260 259 257 254 253 253 254 253 251 249 246 242 240 238 239 241 244 245 245 245 247 251 255 259 261 262 261 257 252 248 244 241 237 234 233 232 233 235 239 243 246 248 249 249 249 250 251 253 256 259 262 264 265 267 269 271 273 273
267 268 268 268 267 266 265 264 263 263 263 264 264 264 264 264 264 264 265 265 266 265 261 256 253 252 254 256 257 257 254 251 250 250 250 249 247 245 244 242 240 239 240 242 244 245 245 246 249 253 256 259 260 260 258 254 250 246 243 239 235 233 234 237 239 241 243 246 248 250 251 252 253 253 254 255 257 258 259 260 260 261 263 265 267 267
266 267 267 267 267 267 266 265 264 264 264 264 264 264 264 264 264 264 265 266 267 265 261 256 253 252 254 255 255 253 249 247 246 246 245 244 243 242 242 242 241 241 242 243 244 244 245 248 251 253 255 257 258 258 256 253 249 246 242 238 235 233 234 236 240 243 246 248 250 251 253 254 254 253 254 254 254 254 254 254 255 256 258 261 262 261
264 264 265 266 266 267 267 266 266 265 265 265 265 265 264 264 264 264 264 264 264 263 259 255 252 253 254 255 253 249 245 243 243 243 242 240 238 238 239 241 242 242 243 243 243 244 246 248 251 252 253 255 256 257 256 253 250 246 242 239 237 235 235 236 239 243 246 248 250 251 253 253 252 251 251 251 251 251 251 252 254 256 257 258 257 255
263 263 264 265 266 266 266 266 266 266 265 265 265 265 264 264 264 263 263 263 262 261 258 254 252 252 253 253 250 246 243 242 242 242 240 238 236 236 238 240 241 242 242 241 241 243 245 248 250 251 252 253 255 257 256 253 250 246 243 241 239 238 238 238 239 241 244 245 247 248 249 248 248 247 247 248 249 250 252 254 255 256 256 255 253 250
263 263 263 264 265 265 265 264 264 264 265 264 264 264 264 263 263 263 263 263 263 261 258 255 252 251 249 248 246 244 242 242 241 240 239 237 236 237 238 239 240 240 240 239 240 241 244 247 249 250 251 253 255 257 256 253 249 245 243 241 241 241 240 239 239 240 241 242 242 243 244 244 244 244 245 247 249 251 253 255 256 255 255 253 251 248
264 264 264 264 265 265 264 263 263 263 263 262 261 262 262 263 263 263 262 264 265 264 261 257 253 250 246 244 244 244 243 241 239 236 235 234 234 235 236 237 238 238 238 237 238 240 242 245 247 248 250 253 255 256 255 252 248 244 242 241 241 241 240 239 238 238 238 238 238 239 240 241 242 244 246 248 251 253 254 254 255 254 253 252 251 248
266 266 266 265 265 264 263 262 261 261 260 259 258 258 259 262 263 263 263 265 266 266 264 260 255 249 244 242 242 243 244 242 239 235 233 232 231 232 232 233 234 235 235 235 237 239 241 243 245 247 249 252 254 255 254 250 246 243 241 240 240 239 238 236 235 235 235 235 236 237 239 240 242 245 247 249 251 252 253 253 254 254 254 253 252 250
266 267 266 265 264 264 263 262 260 259 259 259 260 261 262 263 263 263 263 264 265 265 264 260 255 249 244 241 240 241 243 242 239 235 233 232 231 231 231 232 232 233 234 235 236 239 241 243 245 247 249 252 253 253 251 248 245 242 241 240 240 239 238 236 234 233 233 233 235 236 239 241 243 245 247 249 250 251 252 254 255 256 256 255 253 250
265 265 264 263 263 263 263 262 262 262 262 263 264 264 263 263 262 262 261 261 261 262 261 258 254 249 244 242 240 239 240 240 238 234 232 232 232 232 232 232 233 234 235 236 237 240 243 244 246 247 249 250 251 251 249 246 243 241 241 241 241 240 239 238 236 235 235 235 236 238 240 242 244 245 247 248 250 252 254 256 257 258 257 254 252 249
265 264 262 262 263 263 263 263 263 264 265 266 265 264 262 261 261 261 260 259 259 258 256 253 250 247 243 240 237 237 237 237 236 233 232 231 231 232 232 232 233 235 236 238 239 241 243 245 246 247 248 249 249 248 246 244 242 241 241 241 242 241 240 239 238 238 238 238 238 239 241 243 245 247 248 250 253 255 257 259 259 257 255 252 248 245
263 263 262 262 263 263 263 264 264 265 266 266 265 264 262 262 262 262 260 259 257 255 253 249 245 243 241 237 234 233 233 233 233 233 232 230 230 232 233 232 233 235 238 239 240 241 243 244 245 246 247 247 246 245 244 243 242 241 241 242 242 241 241 240 240 239 239 240 240 241 243 245 247 249 252 255 257 259 259 259 257 255 251 247 243 241
262 262 262 262 262 263 263 263 264 264 265 264 264 264 263 263 262 262 260 258 255 252 250 247 243 240 239 235 231 228 229 228 229 230 231 231 230 231 233 233 234 236 238 239 240 241 242 243 244 245 245 244 243 243 243 242 242 241 241 242 242 242 241 241 240 241 241 241 242 243 245 248 250 253 255 257 259 259 258 256 253 249 245 241 238 236
260 261 261 261 262 263 263 262 262 262 262 262 262 262 262 262 261 260 258 256 253 251 249 246 242 240 239 238 234 229 227 226 226 227 229 229 230 231 233 233 234 235 237 238 239 240 241 242 243 244 243 242 241 241 241 241 241 241 241 242 242 242 241 241 241 242 242 243 244 246 248 251 253 256 257 258 258 256 253 249 245 241 238 236 234 232
261 261 260 260 261 262 262 262 263 262 261 262 262 261 259 260 259 258 256 255 253 251 248 246 244 242 241 240 238 234 230 227 226 226 227 228 229 230 232 233 233 234 235 237 238 239 240 241 242 241 240 239 238 238 239 240 240 241 242 242 243 242 242 242 242 243 244 245 246 248 251 253 255 256 257 256 253 250 246 241 237 234 232 230 229 227
260 260 261 262 262 261 261 263 264 264 263 263 261 259 258 258 256 255 254 253 251 249 247 246 245 244 242 243 242 239 234 230 227 225 227 228 229 229 231 233 233 234 235 236 237 238 239 240 240 239 238 236 236 236 238 239 240 241 242 243 243 243 243 243 243 243 244 246 248 250 252 254 255 255 254 251 247 242 237 233 229 227 226 224 223 221
260 261 263 263 263 262 263 265 265 265 264 261 259 257 256 255 254 253 254 253 251 248 247 246 245 245 244 244 244 242 239 236 232 229 228 227 227 228 230 231 232 233 234 235 237 238 238 238 238 238 237 235 235 235 237 238 240 242 243 244 244 244 243 243 243 244 245 247 249 251 253 253 253 251 248 243 238 234 230 226 223 221 220 218 216 214
261 262 264 264 265 265 266 266 265 264 262 260 258 257 258 258 257 257 257 257 255 254 253 252 251 249 247 246 245 244 242 240 237 234 230 227 226 227 229 230 230 231 233 235 236 236 237 237 237 236 235 234 234 234 236 238 240 242 243 244 245 244 244 244 244 244 246 248 250 251 252 251 249 246 241 236 231 227 224 221 219 217 215 213 210 209
261 263 264 265 266 266 267 266 265 263 261 259 258 258 260 261 262 263 263 263 263 262 260 258 254 251 247 246 245 244 242 240 238 235 231 229 229 229 229 228 227 228 230 233 234 235 236 236 236 236 234 233 233 234 235 237 240 241 243 244 244 245 244 244 244 244 246 248 249 250 249 247 243 239 234 229 225 222 219 217 216 214 211 208 206 204
262 263 264 265 266 267 267 266 264 262 260 258 257 256 256 258 259 260 261 260 260 258 255 252 249 246 244 243 242 241 241 238 236 234 231 229 229 230 229 227 225 225 228 231 233 233 234 235 235 235 234 233 233 234 235 237 239 241 242 243 244 244 244 244 243 244 245 247 248 247 245 242 237 233 227 223 220 217 215 214 213 211 208 205 203 201
263 264 265 266 267 267 268 266 264 261 258 257 255 254 253 253 253 252 252 251 251 249 247 245 244 243 242 241 241 240 238 236 235 234 231 229 229 229 228 227 225 225 227 230 231 231 231 233 234 234 233 233 233 234 235 237 238 240 242 243 243 243 243 243 242 242 244 245 245 244 241 236 232 227 223 218 215 213 212 211 211 209 207 203 201 199
263 264 264 265 266 267 267 265 263 259 257 255 254 253 252 250 248 246 246 246 246 244 242 241 241 241 240 240 240 239 237 235 234 233 231 229 229 228 228 227 225 224 226 228 229 229 229 231 232 233 232 232 233 233 234 236 238 239 241 242 242 242 242 241 241 241 241 242 241 239 236 232 228 223 218 214 211 209 209 209 208 208 206 203 200 198
261 262 263 264 264 265 265 263 260 257 254 253 253 252 251 248 245 243 243 244 244 242 240 238 238 239 238 238 238 237 236 235 233 232 230 228 227 228 229 227 226 224 225 226 227 228 228 228 230 231 231 231 232 233 234 235 236 238 239 240 240 240 240 240 239 238 239 238 237 235 232 228 224 219 214 210 207 206 206 206 206 206 205 202 199 196
260 260 261 262 263 263 262 260 257 254 252 251 251 251 250 247 245 244 244 245 244 241 239 237 237 237 238 238 238 237 236 234 233 231 229 225 225 227 229 227 225 224 224 223 224 224 224 226 228 228 229 230 231 232 233 234 235 236 237 238 238 238 238 238 237 236 235 234 233 231 228 224 220 215 210 207 205 203 203 203 204 204 204 201 197 194
260 261 262 262 263 262 260 256 253 250 249 249 249 249 248 247 247 247 247 247 244 241 238 237 236 236 237 238 237 236 235 233 231 229 227 222 222 224 227 225 224 224 223 221 219 218 220 224 226 227 227 228 229 230 231 233 234 235 235 236 236 236 236 236 235 234 232 230 229 227 225 221 216 211 207 204 203 201 201 201 201 202 202 198 194 190
263 264 265 265 265 264 260 254 250 247 245 245 246 246 246 247 247 248 248 247 244 242 239 237 236 236 236 235 234 232 232 231 228 226 224 221 221 223 225 224 224 225 225 222 218 215 216 220 223 225 226 227 228 229 230 232 233 234 235 235 235 235 235 234 233 232 229 227 225 223 221 217 213 208 204 202 201 200 198 198 198 199 199 196 191 187
267 267 268 269 269 267 263 256 249 244 241 240 241 242 243 244 245 246 246 246 244 242 240 239 238 238 238 237 235 234 235 232 229 225 223 220 221 224 225 224 224 225 226 226 223 219 218 219 221 223 224 225 226 228 229 230 232 233 234 234 234 234 234 233 232 230 227 224 222 220 218 214 210 206 202 200 199 198 196 195 195 196 196 193 188 185
267 268 268 269 269 268 265 259 251 244 240 237 237 238 240 241 243 244 244 244 243 242 240 240 240 240 241 241 241 240 240 238 234 229 225 221 222 224 225 225 225 225 225 226 226 226 225 224 224 224 223 224 225 226 227 229 230 231 232 232 232 232 232 232 231 229 225 221 218 216 214 211 208 204 201 198 197 196 194 192 193 194 193 190 186 183
266 267 267 267 266 265 264 260 253 247 241 238 237 237 238 240 241 242 242 242 241 241 241 240 241 242 242 243 243 243 242 242 240 235 230 225 224 225 226 225 225 225 224 224 224 225 226 228 228 226 224 224 225 226 226 227 229 230 231 230 230 230 231 231 231 228 224 219 216 214 211 209 206 202 199 197 195 194 192 191 192 193 192 187 184 183
264 265 265 265 264 263 261 259 254 249 243 240 238 237 238 238 239 239 239 239 240 240 241 241 242 243 244 243 243 243 243 243 242 239 234 230 227 227 227 227 226 226 224 224 224 224 224 226 228 227 225 224 224 225 226 227 228 229 230 229 228 228 229 230 230 227 222 218 214 212 210 207 204 200 197 195 194 192 191 191 192 192 190 186 183 183
261 262 262 263 263 262 261 258 255 250 246 242 240 238 238 237 237 237 237 237 238 239 241 241 241 242 244 244 244 245 245 245 243 241 238 234 232 230 228 228 229 228 226 225 224 224 224 224 226 227 226 224 223 224 225 227 227 228 228 227 226 225 226 228 228 226 222 217 213 211 209 206 203 199 196 194 193 192 191 192 192 191 189 186 184 183
256 257 259 260 261 261 260 259 256 252 248 245 242 240 238 236 236 236 236 237 238 239 240 240 239 240 241 243 243 244 245 245 245 243 240 238 235 233 231 231 231 230 228 226 225 224 224 223 224 224 225 225 225 225 225 225 226 225 225 225 223 222 223 226 226 224 220 216 213 210 208 206 203 199 195 193 192 192 192 192 192 191 189 187 185 185
252 254 256 258 259 260 259 258 256 254 251 248 244 241 238 236 235 235 236 237 239 239 239 237 236 237 238 239 240 241 241 242 242 241 240 239 237 236 234 233 233 232 231 230 228 227 225 223 221 221 222 224 226 227 227 226 224 223 223 222 221 220 221 223 223 221 217 213 210 208 207 205 202 199 196 194 193 193 193 193 192 191 189 188 187 187
249 251 253 256 257 258 258 257 256 254 252 249 246 242 239 237 236 236 237 239 240 239 236 234 234 234 235 236 236 236 237 237 238 238 238 238 237 237 235 234 233 233 233 232 231 229 228 225 224 223 222 223 224 225 225 225 225 223 221 219 218 218 219 220 219 217 213 210 207 206 206 204 201 198 196 195 195 195 194 193 192 191 190 189 189 189
247 250 252 255 257 258 258 257 255 254 251 249 246 243 240 237 236 237 238 239 239 236 232 230 230 232 233 233 232 232 232 233 234 235 235 235 235 235 234 234 233 233 232 231 230 229 228 227 227 227 226 224 223 222 221 222 222 221 219 216 215 215 216 216 216 214 210 207 205 204 204 202 200 198 196 196 195 195 195 194 193 193 192 191 191 191
247 249 252 255 257 258 257 256 254 252 250 248 245 242 239 236 235 236 238 238 235 232 228 227 228 230 231 230 229 228 228 230 232 234 233 231 229 229 230 231 231 231 230 229 228 228 227 226 226 227 226 225 224 221 219 218 218 218 218 217 216 214 214 214 212 210 207 204 203 202 202 201 199 197 196 195 195 195 195 195 195 195 194 194 193 193
246 249 252 254 255 254 254 253 251 250 249 247 244 241 238 236 236 236 237 236 233 229 226 226 227 228 228 227 225 225 225 228 230 231 230 227 224 222 222 224 225 226 227 227 226 226 225 225 225 225 225 225 223 221 218 216 215 215 216 217 216 215 214 212 210 207 205 203 201 200 199 199 198 196 195 195 195 195 196 196 196 196 196 196 195 195
246 249 252 253 253 252 252 251 250 249 248 245 242 240 239 238 238 238 238 236 233 230 227 226 226 226 225 223 222 222 223 226 228 228 225 222 219 217 216 217 218 219 220 222 224 224 223 223 223 224 224 224 223 220 217 214 213 213 214 214 214 213 210 209 206 204 202 200 199 198 197 197 196 195 195 196 196 197 197 198 198 197 197 197 197 197
246 248 249 249 250 251 251 249 248 248 246 244 241 240 239 239 239 239 238 236 233 231 228 227 225 224 223 221 220 220 221 223 224 222 220 217 214 213 212 212 212 212 214 217 220 221 220 220 220 221 221 222 221 220 218 215 214 213 213 212 212 212 211 208 204 201 199 198 197 197 196 195 194 195 196 197 197 198 199 199 199 198 198 197 198 198
245 245 245 246 247 247 247 247 247 247 246 244 242 240 239 239 238 237 236 235 232 230 228 226 224 222 221 220 219 219 219 219 218 216 214 211 209 208 207 207 207 208 209 213 216 217 218 218 217 216 216 217 217 217 217 217 216 215 213 211 210 210 211 209 205 202 199 197 196 195 194 194 194 195 196 197 198 199 199 199 200 200 199 199 199 200
241 241 241 243 244 244 245 246 246 245 244 242 241 240 239 238 236 235 233 231 229 228 227 226 224 222 220 220 219 218 217 215 213 211 208 206 204 203 202 202 202 204 206 210 213 215 217 218 216 213 211 211 211 212 213 214 216 215 213 210 207 206 205 205 205 203 201 199 197 195 194 194 194 195 196 197 198 200 200 200 200 201 201 200 201 201
237 237 239 240 242 243 244 244 243 242 240 239 239 239 238 236 234 232 230 228 226 225 225 224 223 222 221 221 220 217 215 212 209 206 204 202 200 199 197 197 197 199 202 206 209 211 214 215 216 214 210 208 208 208 208 209 210 211 210 207 204 201 200 200 200 200 200 200 198 196 195 194 194 195 195 196 198 200 201 201 201 201 201 202 202 202
236 237 238 239 240 240 239 239 238 237 237 237 237 237 236 234 232 229 226 225 224 223 222 222 221 221 222 221 220 217 214 210 206 203 201 198 197 195 193 193 192 194 196 199 202 204 206 208 210 212 212 211 210 208 206 204 204 204 205 203 201 198 196 196 195 196 197 198 198 197 197 197 196 195 195 196 198 200 201 202 203 202 202 202 203 203
236 237 237 238 237 235 235 235 235 234 234 235 235 235 233 232 229 226 224 223 222 221 220 220 221 221 221 220 218 216 212 208 204 201 198 196 194 193 191 189 188 189 190 192 194 196 198 198 200 203 208 212 214 212 207 202 199 198 198 198 198 196 194 193 192 193 193 194 195 196 197 198 197 197 197 198 200 201 202 203 204 204 204 203 203 204
235 236 236 235 234 232 232 232 232 232 232 233 233 232 231 229 226 224 222 221 220 219 219 220 221 221 220 218 215 212 209 205 201 199 197 195 193 191 189 187 186 185 186 187 189 191 193 195 197 199 201 204 208 210 207 202 197 193 192 193 194 194 193 192 192 191 191 191 192 193 195 196 196 197 198 200 201 202 203 205 205 206 205 205 205 207
233 233 233 232 231 230 229 229 230 230 232 232 232 231 229 225 222 220 218 217 217 217 218 220 221 220 219 216 213 210 206 202 199 197 195 194 193 191 189 187 185 184 184 185 186 188 190 193 196 198 200 200 200 200 202 201 196 192 189 189 190 191 192 192 192 191 191 191 191 192 193 194 194 195 197 199 201 202 203 205 206 207 206 206 207 209
Height
1458 1458 1459 1459 1459 1459 1460 1460 1461 1461 1461 1462 1462 1462 1463 1463 1464 1464 1465 1465 1465 1466 1466 1466 1467 1467 1468 1468 1469 1469 1470 1470 1470 1469 1469 1470 1470 1471 1471 1472 1473 1473 1474 1475 1475 1476 1476 1477 1477 1477 1478 1478 1479 1480 1480 1480 1481 1481 1481 1482 1483 1484 1484 1484 1484 1483 1483 1484 1484 1484 1484 1484 1484 1485 1485 1486 1486 1487 1488 1488 1489 1489 1489 1490 1490 1491
1456 1456 1457 1457 1457 1458 1458 1459 1459 1459 1459 1460 1460 1461 1461 1462 1462 1462 1463 1463 1464 1464 1464 1465 1465 1466 1466 1466 1466 1467 1467 1468 1468 1468 1468 1468 1468 1469 1469 1470 1471 1471 1472 1473 1473 1474 1475 1475 1476 1476 1476 1477 1477 1478 1478 1479 1479 1480 1480 1481 1482 1483 1483 1483 1483 1482 1482 1483 1483 1483 1483 1484 1484 1485 1485 1486 1486 1486 1487 1487 1487 1488 1488 1489 1489 1490
1455 1455 1455 1456 1456 1456 1456 1456 1457 1457 1458 1458 1459 1459 1460 1460 1460 1461 1461 1461 1462 1462 1463 1463 1463 1464 1464 1464 1465 1465 1465 1466 1466 1466 1466 1466 1467 1467 1467 1468 1469 1470 1470 1471 1471 1472 1473 1473 1474 1474 1475 1475 1476 1476 1476 1477 1478 1478 1479 1480 1481 1481 1482 1482 1482 1481 1481 1482 1482 1482 1483 1483 1484 1484 1485 1485 1485 1486 1486 1486 1487 1487 1487 1488 1488 1488
1452 1452 1453 1453 1454 1454 1454 1455 1455 1456 1456 1456 1457 1457 1457 1458 1458 1458 1459 1459 1460 1460 1460 1461 1461 1461 1462 1462 1462 1463 1463 1464 1464 1464 1464 1465 1465 1466 1466 1466 1467 1468 1468 1469 1470 1470 1471 1472 1472 1472 1473 1473 1474 1474 1475 1476 1476 1477 1478 1478 1479 1480 1481 1481 1481 1480 1480 1480 1481 1481 1482 1482 1483 1483 1484 1484 1484 1485 1485 1486 1486 1486 1486 1487 1487 1487
1450 1450 1451 1451 1452 1452 1452 1453 1453 1454 1454 1455 1455 1455 1455 1455 1456 1456 1456 1457 1457 1457 1458 1459 1459 1460 1460 1460 1460 1461 1461 1461 1462 1462 1462 1463 1463 1464 1464 1465 1465 1466 1466 1467 1468 1469 1469 1470 1470 1471 1471 1472 1472 1473 1473 1474 1475 1476 1476 1476 1477 1478 1478 1479 1478 1478 1478 1478 1479 1480 1481 1481 1482 1482 1482 1483 1483 1484 1484 1485 1485 1485 1485 1486 1486 1486
1447 1448 1448 1449 1449 1450 1450 1451 1451 1452 1452 1452 1452 1453 1453 1453 1453 1454 1454 1454 1455 1455 1456 1456 1457 1457 1458 1458 1458 1459 1459 1460 1460 1460 1460 1461 1461 1462 1462 1463 1463 1464 1465 1466 1466 1467 1467 1468 1469 1469 1470 1470 1471 1471 1472 1473 1473 1474 1474 1475 1476 1476 1476 1476 1476 1476 1477 1477 1478 1479 1479 1480 1481 1481 1481 1482 1482 1482 1483 1483 1484 1484 1484 1485 1485 1486
1446 1446 1446 1446 1447 1447 1448 1448 1449 1449 1450 1450 1450 1450 1450 1451 1451 1451 1451 1452 1452 1453 1454 1454 1455 1455 1456 1456 1456 1456 1457 1457 1458 1458 1458 1459 1459 1460 1461 1461 1461 1462 1463 1464 1465 1465 1466 1466 1467 1467 1468 1468 1469 1470 1471 1471 1472 1472 1473 1473 1474 1474 1475 1475 1475 1475 1475 1476 1476 1477 1478 1479 1479 1480 1480 1481 1481 1481 1482 1482 1482 1483 1483 1484 1484 1484
1443 1444 1444 1444 1444 1445 1445 1446 1446 1446 1447 1447 1447 1448 1448 1448 1448 1449 1449 1449 1450 1450 1451 1452 1452 1453 1453 1453 1454 1454 1455 1456 1456 1456 1456 1457 1457 1458 1459 1459 1460 1461 1461 1462 1463 1463 1464 1465 1465 1466 1466 1467 1468 1468 1469 1470 1470 1471 1471 1471 1472 1472 1473 1473 1473 1474 1474 1475 1475 1476 1476 1477 1478 1478 1479 1479 1480 1480 1480 1481 1481 1481 1482 1482 1483 1483
1441 1441 1441 1441 1442 1442 1442 1442 1443 1444 1444 1445 1445 1445 1445 1446 1446 1446 1446 1447 1447 1448 1448 1449 1450 1450 1450 1451 1451 1452 1453 1453 1454 1454 1454 1455 1456 1456 1457 1457 1458 1459 1460 1461 1461 1461 1462 1463 1463 1464 1465 1465 1466 1467 1467 1468 1468 1469 1469 1470 1470 1471 1471 1472 1472 1473 1473 1473 1474 1475 1475 1476 1476 1477 1477 1477 1478 1478 1479 1479 1480 1480 1481 1481 1482 1482
1439 1439 1439 1439 1439 1439 1440 1440 1440 1441 1441 1442 1442 1442 1442 1442 1443 1443 1443 1443 1444 1445 1446 1446 1447 1448 1448 1449 1449 1450 1451 1451 1451 1452 1452 1453 1453 1454 1455 1456 1456 1457 1458 1459 1459 1460 1461 1461 1462 1462 1463 1464 1464 1465 1466 1466 1467 1467 1467 1468 1469 1469 1470 1471 1471 1471 1472 1472 1473 1473 1474 1474 1475 1475 1476 1476 1476 1477 1477 1478 1478 1479 1479 1480 1480 1481
1436 1436 1436 1436 1436 1436 1437 1437 1437 1438 1439 1439 1439 1439 1439 1439 1439 1440 1440 1440 1441 1442 1443 1444 1445 1445 1446 1446 1447 1448 1449 1449 1450 1450 1451 1451 1452 1453 1453 1454 1455 1455 1456 1457 1457 1458 1459 1459 1460 1461 1461 1462 1463 1463 1464 1465 1465 1466 1466 1466 1467 1468 1468 1469 1470 1470 1471 1471 1471 1472 1472 1473 1473 1473 1474 1474 1475 1475 1476 1476 1477 1477 1478 1478 1479 1479
1433 1433 1433 1433 1433 1433 1433 1434 1434 1435 1436 1436 1436 1436 1436 1436 1436 1436 1436 1437 1438 1439 1440 1441 1442 1443 1444 1445 1446 1446 1447 1447 1448 1448 1449 1450 1450 1451 1452 1452 1453 1454 1455 1455 1456 1456 1457 1458 1458 1459 1460 1461 1461 1462 1463 1463 1464 1464 1465 1465 1466 1466 1467 1468 1468 1469 1469 1470 1470 1471 1471 1471 1471 1472 1472 1473 1473 1474 1475 1475 1476 1476 1476 1477 1477 1478
1429 1430 1430 1430 1430 1430 1430 1430 1431 1431 1432 1433 1433 1432 1432 1433 1433 1434 1434 1434 1435 1436 1437 1439 1440 1441 1442 1443 1443 1444 1445 1445 1446 1446 1447 1447 1448 1449 1450 1450 1451 1452 1452 1453 1454 1455 1455 1456 1457 1457 1458 1459 1460 1461 1461 1461 1462 1462 1463 1464 1464 1465 1466 1466 1467 1467 1468 1468 1469 1469 1469 1470 1470 1471 1471 1471 1472 1472 1473 1473 1474 1474 1475 1475 1476 1476
1426 1426 1427 1426 1426 1426 1426 1426 1427 1428 1428 1428 1429 1429 1430 1431 1431 1432 1432 1432 1433 1434 1435 1436 1437 1438 1440 1441 1441 1442 1443 1443 1444 1445 1445 1446 1446 1446 1447 1448 1449 1449 1450 1451 1452 1453 1453 1454 1455 1456 1456 1457 1458 1459 1460 1460 1460 1461 1461 1462 1463 1463 1464 1465 1465 1466 1466 1466 1467 1467 1468 1468 1468 1469 1470 1470 1471 1471 1471 1472 1472 1473 1473 1474 1474 1475
1423 1423 1424 1423 1423 1423 1423 1423 1423 1424 1424 1425 1426 1427 1428 1429 1429 1429 1430 1430 1431 1431 1433 1434 1435 1436 1437 1438 1439 1440 1441 1441 1442 1442 1443 1443 1444 1445 1445 1446 1447 1448 1448 1449 1450 1451 1452 1452 1453 1454 1455 1456 1457 1457 1458 1458 1459 1459 1460 1460 1461 1462 1462 1463 1463 1464 1465 1465 1465 1466 1466 1466 1467 1467 1468 1468 1469 1469 1470 1470 1471 1471 1471 1472 1472 1473
1420 1421 1420 1420 1420 1420 1420 1420 1420 1421 1421 1422 1423 1425 1426 1426 1426 1426 1427 1428 1428 1429 1431 1432 1433 1434 1434 1435 1436 1437 1438 1439 1440 1440 1441 1441 1442 1442 1443 1444 1445 1446 1446 1447 1448 1449 1450 1451 1452 1453 1454 1455 1455 1456 1456 1456 1457 1457 1458 1459 1460 1460 1461 1461 1462 1462 1463 1463 1464 1464 1465 1465 1465 1466 1466 1467 1467 1468 1468 1468 1469 1469 1469 1470 1470 1471
1417 1417 1417 1417 1417 1417 1417 1418 1418 1418 1419 1420 1421 1421 1422 1422 1423 1424 1425 1425 1426 1427 1428 1429 1430 1431 1431 1432 1433 1434 1435 1436 1437 1438 1439 1439 1440 1440 1441 1442 1443 1444 1445 1446 1447 1447 1448 1449 1450 1451 1452 1453 1454 1454 1455 1455 1456 1456 1457 1457 1458 1459 1459 1460 1460 1461 1461 1462 1462 1463 1463 1463 1464 1464 1465 1465 1466 1466 1466 1466 1467 1467 1467 1468 1468 1469
1414 1414 1414 1414 1414 1414 1415 1415 1415 1416 1416 1417 1417 1418 1419 1420 1421 1421 1422 1423 1424 1424 1425 1426 1427 1427 1428 1428 1429 1431 1432 1433 1435 1436 1436 1437 1438 1438 1439 1440 1441 1442 1443 1444 1445 1446 1446 1447 1449 1450 1451 1452 1452 1452 1453 1453 1454 1455 1455 1456 1456 1457 1458 1458 1459 1459 1460 1460 1461 1461 1461 1462 1462 1462 1463 1463 1464 1464 1464 1465 1465 1465 1466 1466 1467 1467
1411 1411 1411 1411 1411 1411 1412 1412 1413 1413 1413 1414 1415 1416 1416 1417 1418 1419 1419 1420 1421 1421 1422 1423 1424 1424 1425 1425 1426 1428 1429 1431 1432 1434 1434 1435 1436 1436 1437 1438 1440 1441 1441 1442 1443 1444 1445 1446 1447 1448 1450 1450 1451 1451 1451 1452 1453 1453 1454 1455 1455 1456 1456 1457 1457 1458 1458 1459 1459 1459 1460 1460 1461 1461 1461 1461 1462 1462 1462 1463 1463 1464 1464 1465 1466 1466
1408 1408 1408 1408 1409 1409 1409 1409 1410 1410 1411 1411 1412 1414 1414 1415 1415 1416 1416 1417 1418 1419 1420 1421 1421 1421 1422 1423 1425 1426 1428 1430 1431 1432 1432 1433 1434 1435 1435 1436 1437 1439 1440 1440 1441 1442 1443 1444 1446 1447 1448 1448 1449 1449 1450 1451 1451 1452 1452 1453 1454 1454 1455 1455 1456 1456 1456 1457 1457 1458 1458 1458 1459 1459 1460 1460 1460 1461 1461 1461 1462 1462 1463 1463 1464 1465
1405 1404 1405 1406 1407 1407 1406 1406 1407 1408 1408 1410 1411 1411 1411 1412 1412 1413 1413 1414 1416 1416 1417 1418 1418 1419 1421 1421 1423 1425 1426 1428 1429 1430 1431 1431 1432 1433 1433 1434 1435 1436 1437 1438 1439 1440 1441 1442 1444 1445 1446 1446 1447 1448 1448 1449 1449 1450 1451 1451 1452 1453 1453 1454 1454 1455 1455 1455 1456 1456 1456 1457 1457 1457 1458 1458 1459 1459 1459 1460 1460 1461 1461 1462 1463 1464
1401 1401 1402 1403 1404 1404 1403 1404 1405 1406 1406 1407 1408 1408 1408 1409 1410 1410 1411 1412 1413 1414 1415 1415 1416 1417 1419 1420 1421 1422 1424 1426 1426 1427 1429 1429 1430 1430 1431 1432 1433 1434 1435 1436 1436 1438 1439 1441 1442 1443 1444 1445 1446 1446 1446 1447 1448 1449 1449 1450 1451 1451 1451 1452 1453 1453 1453 1454 1454 1455 1455 1455 1456 1456 1456 1457 1457 1458 1458 1459 1459 1460 1461 1461 1462 1463
1398 1398 1399 1400 1401 1401 1401 1402 1403 1403 1404 1404 1405 1405 1405 1406 1407 1408 1409 1410 1411 1412 1412 1413 1414 1416 1417 1418 1419 1420 1422 1423 1424 1426 1426 1426 1427 1427 1428 1429 1431 1431 1432 1433 1435 1436 1437 1439 1440 1441 1442 1443 1444 1444 1445 1446 1446 1447 1448 1448 1449 1450 1450 1451 1451 1452 1452 1452 1453 1453 1454 1454 1454 1455 1455 1456 1456 1456 1457 1457 1458 1459 1460 1461 1461 1462
1396 1396 1397 1397 1398 1398 1399 1400 1400 1401 1401 1401 1402 1402 1403 1404 1405 1406 1407 1408 1409 1410 1411 1412 1413 1414 1415 1416 1416 1417 1419 1420 1422 1423 1424 1424 1424 1425 1426 1427 1428 1429 1430 1431 1432 1434 1436 1437 1438 1440 1441 1441 1442 1443 1444 1444 1445 1446 1446 1447 1447 1448 1449 1449 1450 1450 1451 1451 1451 1452 1452 1452 1453 1453 1454 1454 1455 1455 1456 1456 1457 1458 1459 1460 1460 1461
1393 1393 1394 1395 1395 1396 1396 1397 1397 1398 1398 1399 1400 1401 1402 1403 1404 1405 1406 1406 1407 1408 1409 1410 1411 1411 1411 1412 1413 1414 1415 1417 1419 1420 1421 1421 1421 1422 1424 1425 1426 1427 1428 1429 1431 1432 1434 1435 1436 1438 1439 1440 1440 1441 1442 1443 1444 1444 1445 1446 1446 1446 1447 1448 1448 1449 1449 1450 1450 1451 1451 1451 1452 1452 1453 1453 1454 1454 1455 1456 1456 1457 1458 1458 1459 1460
1390 1391 1391 1392 1392 1393 1393 1394 1395 1395 1396 1396 1397 1398 1400 1401 1402 1403 1404 1404 1404 1405 1406 1407 1407 1407 1408 1409 1410 1411 1412 1414 1415 1416 1418 1418 1419 1420 1422 1423 1424 1425 1426 1427 1429 1431 1432 1433 1434 1436 1436 1437 1438 1439 1440 1441 1442 1443 1443 1444 1445 1445 1446 1446 1447 1447 1448 1448 1449 1449 1450 1450 1451 1451 1451 1452 1452 1453 1454 1455 1456 1456 1457 1457 1458 1459
1387 1388 1388 1389 1390 1390 1391 1391 1392 1392 1393 1393 1394 1396 1397 1399 1400 1400 1400 1400 1400 1401 1403 1404 1404 1404 1405 1406 1406 1407 1409 1411 1412 1414 1415 1416 1416 1417 1419 1421 1421 1423 1424 1426 1427 1429 1430 1431 1432 1433 1435 1436 1436 1437 1439 1440 1441 1441 1442 1442 1443 1444 1444 1445 1446 1446 1447 1447 1448 1448 1449 1449 1450 1450 1450 1451 1451 1452 1453 1454 1455 1456 1456 1457 1457 1458
1385 1385 1386 1386 1387 1387 1388 1388 1388 1389 1390 1390 1391 1393 1394 1396 1396 1396 1396 1396 1397 1399 1400 1401 1401 1401 1402 1402 1403 1404 1406 1408 1409 1411 1412 1413 1415 1415 1416 1418 1419 1421 1422 1424 1426 1427 1428 1429 1430 1431 1432 1434 1435 1436 1437 1438 1439 1440 1441 1441 1441 1442 1443 1443 1444 1445 1446 1446 1446 1447 1447 1448 1448 1449 1449 1450 1451 1451 1452 1453 1454 1455 1456 1456 1456 1457
1381 1381 1382 1383 1383 1384 1385 1385 1385 1386 1387 1387 1389 1390 1391 1391 1391 1391 1391 1393 1395 1396 1397 1397 1398 1399 1399 1400 1401 1402 1404 1405 1406 1408 1410 1411 1412 1413 1414 1416 1417 1418 1420 1422 1423 1425 1426 1427 1428 1429 1430 1431 1433 1434 1436 1436 1437 1438 1439 1440 1440 1441 1441 1442 1443 1444 1444 1445 1445 1446 1446 1447 1447 1448 1448 1449 1450 1451 1451 1452 1453 1454 1455 1455 1456 1456
1377 1378 1379 1379 1380 1381 1381 1382 1382 1383 1384 1385 1386 1386 1387 1387 1387 1388 1389 1391 1392 1393 1393 1394 1396 1396 1397 1398 1399 1400 1401 1402 1403 1405 1407 1409 1410 1410 1411 1413 1414 1415 1417 1419 1421 1422 1423 1424 1426 1427 1428 1430 1431 1432 1434 1435 1436 1436 1437 1438 1439 1439 1440 1441 1441 1442 1443 1444 1444 1445 1445 1446 1446 1447 1447 1448 1449 1450 1451 1451 1452 1453 1454 1455 1455 1455
1374 1375 1375 1376 1376 1377 1378 1379 1379 1380 1381 1382 1383 1384 1384 1384 1385 1386 1387 1388 1389 1390 1391 1392 1393 1394 1394 1395 1396 1396 1396 1397 1399 1402 1404 1406 1407 1407 1408 1410 1411 1412 1414 1416 1418 1419 1420 1421 1423 1425 1426 1428 1429 1430 1431 1433 1434 1435 1436 1436 1437 1438 1439 1440 1440 1441 1442 1442 1443 1444 1444 1445 1445 1446 1446 1447 1448 1449 1450 1451 1451 1453 1454 1454 1454 1454
1370 1371 1371 1372 1373 1374 1375 1376 1376 1377 1378 1380 1380 1381 1381 1381 1382 1383 1384 1384 1385 1386 1388 1389 1390 1391 1391 1392 1392 1392 1392 1394 1396 1399 1402 1404 1405 1405 1406 1407 1409 1410 1412 1414 1415 1416 1416 1418 1420 1422 1424 1426 1427 1428 1430 1431 1432 1433 1434 1435 1436 1436 1437 1438 1439 1440 1441 1441 1442 1442 1443 1444 1445 1445 1446 1446 1447 1448 1449 1450 1451 1452 1453 1453 1453 1454
1367 1368 1368 1369 1370 1371 1371 1372 1373 1374 1375 1376 1377 1377 1378 1378 1379 1380 1381 1381 1382 1384 1386 1387 1388 1389 1390 1390 1391 1391 1391 1393 1395 1398 1401 1402 1402 1402 1404 1405 1407 1408 1410 1411 1413 1414 1415 1415 1417 1420 1422 1423 1425 1426 1428 1429 1430 1431 1432 1433 1435 1435 1436 1437 1437 1438 1439 1440 1441 1441 1442 1443 1444 1444 1445 1446 1446 1447 1448 1449 1451 1451 1452 1452 1453 1453
1364 1365 1365 1366 1367 1367 1368 1369 1370 1371 1371 1372 1373 1374 1375 1375 1376 1377 1378 1379 1380 1381 1382 1384 1386 1386 1387 1388 1389 1390 1390 1391 1394 1397 1399 1400 1400 1400 1401 1403 1404 1406 1407 1409 1410 1412 1413 1414 1416 1418 1420 1421 1423 1425 1426 1427 1428 1430 1431 1432 1433 1434 1435 1435 1436 1437 1438 1439 1439 1440 1441 1442 1442 1443 1444 1445 1446 1446 1447 1448 1450 1451 1451 1452 1452 1453
1361 1361 1362 1363 1363 1364 1364 1365 1366 1367 1368 1368 1369 1370 1371 1372 1373 1374 1375 1376 1377 1378 1380 1381 1383 1384 1385 1386 1387 1387 1388 1390 1392 1395 1396 1397 1397 1398 1399 1400 1401 1403 1405 1406 1407 1409 1411 1412 1414 1416 1418 1420 1421 1422 1424 1425 1426 1428 1429 1431 1431 1432 1433 1434 1435 1436 1437 1438 1438 1439 1440 1441 1441 1442 1443 1444 1445 1446 1446 1448 1449 1450 1451 1451 1452 1453
1358 1358 1359 1359 1360 1360 1361 1361 1362 1363 1364 1365 1366 1366 1368 1369 1369 1371 1371 1372 1374 1375 1377 1379 1381 1382 1383 1384 1384 1385 1386 1388 1391 1392 1394 1394 1395 1396 1397 1398 1399 1400 1402 1403 1405 1406 1408 1410 1412 1414 1416 1417 1419 1420 1422 1423 1425 1426 1427 1429 1430 1431 1432 1432 1433 1434 1436 1436 1437 1438 1439 1440 1441 1441 1442 1443 1444 1445 1446 1447 1448 1449 1450 1451 1451 1452
1354 1355 1355 1356 1356 1357 1357 1358 1359 1360 1360 1361 1362 1363 1364 1366 1366 1368 1369 1370 1371 1373 1375 1377 1378 1380 1381 1382 1383 1384 1385 1387 1389 1390 1391 1392 1393 1394 1395 1396 1396 1398 1399 1401 1402 1404 1406 1408 1410 1412 1414 1415 1416 1417 1419 1421 1423 1424 1426 1427 1428 1429 1430 1431 1432 1433 1434 1435 1436 1437 1438 1439 1440 1440 1441 1442 1443 1444 1446 1447 1447 1448 1449 1450 1451 1451
1350 1351 1351 1352 1353 1354 1354 1355 1355 1356 1357 1358 1359 1360 1362 1363 1364 1366 1367 1368 1370 1371 1372 1374 1376 1377 1378 1380 1381 1382 1384 1386 1387 1388 1389 1390 1391 1392 1393 1394 1395 1396 1397 1399 1400 1402 1404 1406 1407 1409 1411 1412 1414 1416 1417 1419 1421 1422 1423 1425 1426 1428 1429 1430 1431 1432 1433 1434 1435 1436 1437 1438 1439 1439 1440 1441 1442 1443 1445 1446 1446 1447 1448 1449 1450 1451
1346 1347 1348 1349 1350 1350 1351 1351 1352 1353 1355 1356 1357 1358 1360 1361 1362 1364 1365 1366 1368 1369 1370 1372 1373 1374 1376 1377 1379 1380 1381 1383 1384 1385 1386 1387 1388 1390 1391 1391 1393 1394 1396 1397 1399 1400 1402 1403 1405 1406 1408 1410 1412 1414 1416 1417 1419 1420 1422 1423 1425 1426 1427 1428 1429 1430 1431 1432 1434 1435 1435 1436 1437 1438 1439 1440 1441 1442 1444 1445 1446 1446 1447 1448 1449 1450
1342 1343 1344 1345 1346 1347 1348 1349 1350 1351 1352 1353 1354 1356 1357 1359 1360 1362 1363 1365 1366 1367 1368 1369 1371 1372 1373 1375 1377 1378 1380 1381 1382 1383 1384 1385 1386 1387 1388 1390 1391 1392 1394 1396 1397 1399 1400 1402 1403 1405 1406 1408 1410 1411 1413 1415 1417 1418 1420 1421 1422 1424 1425 1426 1427 1429 1430 1431 1432 1433 1434 1435 1436 1437 1438 1439 1441 1442 1443 1444 1445 1446 1447 1448 1449 1450
1339 1340 1341 1342 1343 1345 1346 1347 1348 1349 1350 1351 1352 1354 1355 1356 1358 1359 1361 1362 1363 1365 1366 1367 1368 1370 1371 1373 1375 1376 1377 1378 1380 1381 1382 1383 1384 1386 1386 1387 1389 1390 1392 1393 1395 1397 1399 1400 1402 1404 1405 1407 1408 1410 1411 1413 1415 1416 1418 1419 1420 1421 1423 1425 1426 1427 1429 1430 1431 1432 1433 1434 1435 1436 1437 1439 1440 1441 1442 1443 1444 1445 1446 1447 1448 1449
1336 1337 1338 1340 1341 1342 1343 1344 1345 1346 1347 1349 1350 1351 1352 1354 1355 1357 1358 1360 1361 1362 1364 1365 1366 1368 1370 1371 1373 1374 1375 1376 1377 1378 1380 1381 1382 1383 1384 1386 1387 1388 1390 1392 1393 1395 1397 1399 1401 1402 1404 1405 1407 1409 1410 1412 1413 1415 1416 1417 1419 1421 1423 1424 1425 1426 1427 1428 1430 1431 1432 1433 1434 1435 1436 1438 1439 1440 1441 1442 1443 1444 1445 1446 1447 1448
1333 1334 1336 1337 1338 1339 1340 1341 1343 1344 1345 1347 1348 1349 1350 1351 1353 1355 1356 1358 1359 1361 1361 1363 1364 1366 1367 1369 1370 1371 1373 1374 1375 1377 1378 1379 1380 1381 1382 1383 1385 1386 1388 1390 1392 1394 1396 1397 1399 1401 1402 1404 1406 1407 1409 1410 1412 1413 1415 1416 1418 1419 1420 1421 1422 1424 1426 1427 1428 1429 1431 1432 1433 1434 1436 1437 1438 1439 1440 1441 1442 1443 1444 1445 1446 1447
1331 1332 1333 1334 1335 1336 1337 1339 1340 1341 1343 1344 1346 1347 1348 1350 1351 1353 1354 1356 1357 1359 1360 1361 1362 1364 1366 1367 1368 1369 1371 1372 1373 1375 1376 1377 1378 1379 1381 1381 1383 1385 1386 1388 1390 1392 1394 1396 1398 1399 1401 1403 1405 1406 1407 1409 1410 1411 1413 1415 1416 1417 1417 1419 1421 1422 1424 1426 1427 1428 1429 1431 1432 1433 1435 1436 1437 1438 1439 1440 1441 1442 1443 1444 1446 1446
1328 1329 1330 1331 1332 1333 1335 1336 1337 1339 1341 1342 1343 1345 1346 1348 1349 1351 1352 1353 1355 1357 1358 1359 1361 1362 1364 1365 1366 1367 1369 1370 1371 1373 1374 1375 1376 1378 1379 1380 1382 1383 1385 1387 1389 1390 1392 1394 1396 1398 1400 1401 1403 1405 1406 1408 1409 1410 1411 1413 1414 1416 1418 1420 1421 1422 1423 1424 1426 1427 1428 1430 1431 1432 1434 1435 1436 1437 1438 1439 1440 1441 1442 1444 1445 1446
1325 1326 1326 1327 1329 1330 1332 1333 1335 1337 1339 1340 1341 1343 1344 1346 1347 1348 1350 1351 1352 1354 1356 1357 1359 1360 1361 1362 1364 1365 1366 1368 1369 1371 1372 1373 1375 1376 1377 1379 1381 1382 1384 1386 1388 1390 1392 1394 1395 1397 1399 1400 1402 1403 1405 1406 1407 1409 1410 1411 1413 1415 1417 1419 1421 1422 1423 1424 1425 1426 1427 1429 1430 1431 1432 1433 1435 1436 1437 1438 1439 1440 1441 1443 1444 1445
1321 1322 1323 1325 1326 1328 1330 1331 1333 1335 1336 1338 1339 1341 1342 1343 1345 1346 1347 1349 1351 1352 1354 1356 1357 1359 1360 1361 1362 1363 1364 1366 1367 1368 1370 1371 1372 1374 1376 1377 1379 1381 1383 1385 1387 1389 1391 1393 1395 1396 1397 1399 1400 1401 1403 1404 1406 1407 1409 1410 1412 1413 1415 1417 1419 1420 1422 1423 1425 1426 1426 1428 1429 1430 1431 1432 1434 1435 1436 1437 1438 1440 1441 1442 1443 1444
1318 1319 1321 1322 1324 1326 1327 1329 1331 1332 1334 1336 1337 1339 1340 1341 1343 1344 1345 1347 1348 1350 1352 1354 1355 1356 1358 1359 1360 1361 1362 1364 1365 1366 1367 1369 1371 1372 1374 1375 1377 1379 1381 1383 1386 1388 1390 1392 1394 1396 1397 1398 1399 1400 1401 1403 1405 1406 1407 1409 1411 1412 1414 1416 1417 1419 1421 1422 1424 1425 1426 1427 1428 1429 1430 1431 1433 1434 1435 1436 1437 1439 1440 1441 1442 1443
1316 1317 1318 1320 1321 1323 1325 1326 1328 1330 1332 1334 1335 1337 1338 1340 1341 1342 1343 1345 1346 1348 1350 1351 1353 1355 1356 1357 1359 1360 1361 1362 1363 1365 1366 1367 1369 1370 1372 1373 1375 1377 1380 1382 1384 1386 1388 1390 1392 1394 1395 1397 1398 1400 1401 1402 1403 1405 1406 1408 1410 1411 1413 1415 1416 1418 1420 1421 1422 1424 1425 1426 1427 1429 1430 1431 1432 1433 1434 1435 1436 1438 1439 1440 1441 1442
1313 1315 1316 1317 1319 1321 1322 1324 1326 1328 1330 1332 1333 1335 1336 1338 1339 1340 1341 1343 1345 1346 1348 1350 1351 1352 1354 1355 1356 1358 1359 1361 1362 1363 1365 1366 1367 1369 1370 1372 1374 1376 1378 1381 1383 1385 1387 1389 1390 1392 1393 1395 1397 1399 1401 1402 1403 1404 1406 1407 1409 1411 1413 1414 1416 1417 1418 1420 1421 1422 1424 1425 1427 1428 1429 1430 1431 1432 1433 1434 1436 1436 1438 1439 1440 1441
1311 1313 1314 1316 1317 1318 1320 1322 1324 1326 1328 1330 1331 1333 1334 1336 1337 1339 1340 1341 1343 1345 1346 1348 1350 1351 1352 1354 1355 1356 1357 1359 1360 1361 1363 1364 1366 1367 1369 1370 1372 1374 1376 1379 1381 1383 1385 1387 1389 1391 1392 1394 1395 1397 1399 1401 1402 1403 1404 1406 1407 1410 1411 1413 1415 1416 1417 1418 1420 1421 1422 1424 1425 1426 1428 1429 1430 1431 1432 1433 1435 1436 1437 1438 1439 1440